Weather History for Dumas, TX

Change the Weather History Date:

Wednesday, December 5, 2012

  Actual Average (KBGD) Record (KBGD)
Temperature  
Mean Temperature 48 °F 41 °F  
Max Temperature 62 °F 53 °F 74 °F (1987)
Min Temperature 33 °F 29 °F 10 °F (1950)
Degree Days  
Heating Degree Days 18 24  
Month to date heating degree days 118  
Since 1 July heating degree days 835  
Cooling Degree Days 0 0  
Month to date cooling degree days 0  
Year to date cooling degree days 1839  
Moisture  
Dew Point 23 °F    
Average Humidity 39    
Maximum Humidity 50    
Minimum Humidity 23    
Precipitation  
Precipitation 0.00 in 0.02 in 0.64 in (1992)
Month to date precipitation 0.10  
Year to date precipitation 21.05  
Snow  
Snow 0.00 in - - ()
Month to date snowfall  
Since 1 July snowfall  
Snow Depth -    
Sea Level Pressure  
Sea Level Pressure 30.08 in    
Wind  
Wind Speed 13 mph (South)    
Max Wind Speed 24 mph    
Max Gust Speed 32 mph    
Visibility 10 miles    
Events      
T = Trace of Precipitation, MM = Missing Value Source: NWS Daily Summary

Daily Weather History Graph

Daily Weather History Graph

Search for Another Location

Airport:

Trip Planner

Search our weather history database for the weather conditions in past years. The results will help you decide how hot, cold, wet, or windy it might be!

Date:

Astronomy

Dec. 05, 2012 Rise Set
Actual Time 7:43 AM CST 5:34 PM CST
Civil Twilight 7:15 AM CST 6:02 PM CST
Nautical Twilight 6:43 AM CST 6:34 PM CST
Astronomical Twilight 6:12 AM CST 7:05 PM CST
Moon No Moon Rise 12:17 PM CST (12/5)
Length of Visible Light 10h 46m
Length of Day
9h 50m
Waning Gibbous, 59% of the Moon is Illuminated
Dec 5
Waning Gibbous
Dec 6
Last Quarter
Dec 13
New
Dec 19
First Quarter
Dec 28
Full

Hourly Weather History & Observations

Time (CST) Temp. Windchill Dew Point Humidity Pressure Visibility Wind Dir Wind Speed Gust Speed Precip Events Conditions
12:15 AM 35.6 °F 28.0 °F 15.8 °F 44% 30.28 in 10.0 mi South 10.4 mph - N/A   Clear
12:35 AM 35.6 °F 28.0 °F 15.8 °F 44% 30.28 in 10.0 mi South 10.4 mph - N/A   Clear
12:55 AM 35.6 °F 28.0 °F 15.8 °F 44% 30.28 in 10.0 mi South 10.4 mph - N/A   Clear
1:15 AM 33.8 °F 26.4 °F 14.0 °F 44% 30.28 in 10.0 mi South 9.2 mph - N/A   Clear
1:55 AM 33.8 °F 26.4 °F 15.8 °F 48% 30.27 in 10.0 mi South 9.2 mph - N/A   Clear
2:15 AM 35.6 °F 28.6 °F 15.8 °F 44% 30.27 in 10.0 mi South 9.2 mph - N/A   Clear
2:35 AM 35.6 °F 28.0 °F 15.8 °F 44% 30.26 in 10.0 mi South 10.4 mph - N/A   Clear
2:55 AM 35.6 °F 27.5 °F 14.0 °F 41% 30.27 in 10.0 mi South 11.5 mph - N/A   Clear
3:15 AM 35.6 °F 28.0 °F 14.0 °F 41% 30.26 in 10.0 mi South 10.4 mph - N/A   Clear
3:35 AM 35.6 °F 27.5 °F 15.8 °F 44% 30.26 in 10.0 mi South 11.5 mph - N/A   Clear
3:55 AM 37.4 °F 29.8 °F 15.8 °F 41% 30.26 in 10.0 mi South 11.5 mph - N/A   Clear
4:15 AM 37.4 °F 29.3 °F 15.8 °F 41% 30.25 in 10.0 mi South 12.7 mph - N/A   Clear
4:35 AM 37.4 °F 30.8 °F 15.8 °F 41% 30.25 in 10.0 mi South 9.2 mph - N/A   Clear
4:55 AM 37.4 °F 30.3 °F 15.8 °F 41% 30.24 in 10.0 mi South 10.4 mph - N/A   Clear
5:15 AM 37.4 °F 29.8 °F 15.8 °F 41% 30.24 in 10.0 mi South 11.5 mph - N/A   Clear
5:35 AM 37.4 °F 30.3 °F 15.8 °F 41% 30.23 in 10.0 mi South 10.4 mph - N/A   Clear
5:55 AM 35.6 °F 29.2 °F 15.8 °F 44% 30.24 in 10.0 mi South 8.1 mph - N/A   Clear
6:15 AM 35.6 °F 28.6 °F 15.8 °F 44% 30.24 in 10.0 mi South 9.2 mph - N/A   Clear
6:35 AM 35.6 °F 27.5 °F 17.6 °F 48% 30.22 in 10.0 mi South 11.5 mph - N/A   Clear
6:55 AM 37.4 °F 29.8 °F 17.6 °F 45% 30.22 in 10.0 mi South 11.5 mph - N/A   Clear
8:35 AM 41.0 °F 33.5 °F 17.6 °F 39% 30.21 in 10.0 mi South 13.8 mph - N/A   Clear
8:55 AM 42.8 °F 35.4 °F 17.6 °F 36% 30.20 in 10.0 mi South 15.0 mph - N/A   Clear
9:15 AM 42.8 °F 34.5 °F 17.6 °F 36% 30.20 in 10.0 mi South 18.4 mph - N/A   Clear
9:35 AM 44.6 °F 37.8 °F 19.4 °F 37% 30.21 in 10.0 mi South 15.0 mph - N/A   Clear
9:55 AM 46.4 °F 40.4 °F 19.4 °F 34% 30.21 in 10.0 mi South 13.8 mph - N/A   Clear
10:15 AM 46.4 °F 40.7 °F 19.4 °F 34% 30.20 in 10.0 mi South 12.7 mph 17.3 mph N/A   Clear
10:35 AM 50.0 °F - 21.2 °F 32% 30.19 in 10.0 mi SSW 16.1 mph 24.2 mph N/A   Clear
10:55 AM 51.8 °F - 21.2 °F 30% 30.17 in 10.0 mi SSW 21.9 mph 26.5 mph N/A   Clear
11:15 AM 53.6 °F - 23.0 °F 30% 30.15 in 10.0 mi South 24.2 mph 28.8 mph N/A   Clear
11:35 AM 53.6 °F - 24.8 °F 33% 30.14 in 10.0 mi SSW 24.2 mph 32.2 mph N/A   Clear
11:55 AM 53.6 °F - 26.6 °F 35% 30.14 in 10.0 mi South 21.9 mph 31.1 mph N/A   Clear
12:15 PM 55.4 °F - 26.6 °F 33% 30.12 in 10.0 mi South 24.2 mph - N/A   Clear
12:35 PM 55.4 °F - 26.6 °F 33% 30.10 in 10.0 mi SSW 23.0 mph - N/A   Clear
12:55 PM 55.4 °F - 26.6 °F 33% 30.08 in 10.0 mi SSW 18.4 mph 27.6 mph N/A   Clear
1:15 PM 55.4 °F - 26.6 °F 33% 30.07 in 10.0 mi SSW 21.9 mph 26.5 mph N/A   Clear
1:35 PM 57.2 °F - 28.4 °F 33% 30.06 in 10.0 mi SSW 20.7 mph 27.6 mph N/A   Clear
1:55 PM 57.2 °F - 28.4 °F 33% 30.04 in 10.0 mi SSW 18.4 mph - N/A   Clear
2:15 PM 59.0 °F - 28.4 °F 31% 30.02 in 10.0 mi South 17.3 mph - N/A   Clear
2:35 PM 60.8 °F - 30.2 °F 31% 30.02 in 10.0 mi South 18.4 mph 23.0 mph N/A   Clear
2:55 PM 60.8 °F - 30.2 °F 31% 30.01 in 10.0 mi SSW 18.4 mph - N/A   Clear
3:15 PM 60.8 °F - 28.4 °F 29% 30.00 in 10.0 mi South 15.0 mph - N/A   Clear
3:35 PM 62.6 °F - 28.4 °F 27% 29.98 in 10.0 mi SSW 15.0 mph 24.2 mph N/A   Clear
3:55 PM 62.6 °F - 26.6 °F 26% 29.97 in 10.0 mi SSW 15.0 mph - N/A   Clear
4:15 PM 62.6 °F - 26.6 °F 26% 29.96 in 10.0 mi South 15.0 mph - N/A   Clear
4:35 PM 62.6 °F - 26.6 °F 26% 29.96 in 10.0 mi South 11.5 mph 15.0 mph N/A   Clear
4:55 PM 60.8 °F - 23.0 °F 23% 29.95 in 10.0 mi South 11.5 mph - N/A   Clear
5:15 PM 57.2 °F - 23.0 °F 27% 29.95 in 10.0 mi South 9.2 mph - N/A   Clear
5:35 PM 53.6 °F - 23.0 °F 30% 29.95 in 10.0 mi South 8.1 mph - N/A   Clear
6:15 PM 48.2 °F - 21.2 °F 34% 29.95 in 10.0 mi South 6.9 mph - N/A   Clear
6:35 PM 46.4 °F 42.4 °F 21.2 °F 37% 29.93 in 10.0 mi SSE 8.1 mph - N/A   Clear
6:55 PM 44.6 °F 39.7 °F 23.0 °F 43% 29.93 in 10.0 mi SSE 9.2 mph - N/A   Clear
7:15 PM 50.0 °F - 28.4 °F 43% 29.93 in 10.0 mi South 10.4 mph - N/A   Clear
7:35 PM 50.0 °F - 28.4 °F 43% 29.92 in 10.0 mi SSE 12.7 mph - N/A   Clear
7:55 PM 50.0 °F - 28.4 °F 43% 29.92 in 10.0 mi SSE 12.7 mph - N/A   Clear
8:15 PM 48.2 °F - 28.4 °F 46% 29.92 in 10.0 mi SSE 10.4 mph - N/A   Clear
8:35 PM 48.2 °F - 28.4 °F 46% 29.92 in 10.0 mi SSE 11.5 mph - N/A   Clear
8:55 PM 50.0 °F - 28.4 °F 43% 29.91 in 10.0 mi SSE 12.7 mph - N/A   Clear
9:15 PM 46.4 °F 40.7 °F 28.4 °F 50% 29.90 in 10.0 mi SSE 12.7 mph - N/A   Clear
9:35 PM 48.2 °F - 28.4 °F 46% 29.88 in 10.0 mi SSE 11.5 mph - N/A   Clear
9:55 PM 46.4 °F 40.1 °F 28.4 °F 50% 29.87 in 10.0 mi SSE 15.0 mph - N/A   Clear
10:15 PM 50.0 °F - 28.4 °F 43% 29.86 in 10.0 mi South 15.0 mph - N/A   Clear
10:35 PM 50.0 °F - 28.4 °F 43% 29.87 in 10.0 mi South 13.8 mph - N/A   Clear
10:55 PM 46.4 °F 40.7 °F 28.4 °F 50% 29.86 in 10.0 mi South 12.7 mph - N/A   Clear
11:15 PM 46.4 °F 41.5 °F 28.4 °F 50% 29.86 in 10.0 mi South 10.4 mph - N/A   Clear
11:35 PM 46.4 °F 40.4 °F 26.6 °F 46% 29.85 in 10.0 mi South 13.8 mph - N/A   Clear
11:55 PM 46.4 °F 41.1 °F 26.6 °F 46% 29.84 in 10.0 mi South 11.5 mph - N/A   Clear